MAROC-TUBSAT

Last updated on Mon Sep 07 2026 00:02:44 GMT+0000 (Coordinated Universal Time)

1 27004U 01056D 26249.48732825 -.00000017 00000+0 34166-4 0 9999 2 27004 99.8133 67.9052 0019124 295.9287 119.5739 13.70265312237328
UTC large
Height (km)
Speed (km/s)
/
Latitude / Longitude
Inclination (degrees)
Orbital Period (minutes)
Azimuth
Elevation
Range (km)
Doppler Factor

Next 0 passes for location: London (51.5072 / 0.1276)

No passes found over London.
MAROC-TUBSAT